Flag for Germany Weather past 2 weeks in Burgdorf, Lower Saxony, Germany

Now
57 °F

Broken clouds.


Feels Like: 55 °F
Forecast: 48 / 63 °F
Wind: 8 mph from Southwest

Location: Celle Airport

Current Time: Aug 23, 2014 at 6:00:13 PM

Latest Report: Aug 23, 2014 at 5:20 PM


Visibility: N/A

Pressure: 29.89 "Hg

Humidity: 72%

Dew point: 48 °F

Location of BurgdorfLocation

Historic Weather in Burgdorf — Graph

°F

Burgdorf temperature yesterday

Maximum temperature yesterday: 66 °F (at 3:20 PM)
Minimum temperature yesterday: 50 °F (at 6:20 AM)
Average temperature yesterday: 58 °F

Past Weeks' High & Low Weather Summary

 TemperatureHumidityPressure
High79 °F (Aug 8, 5:20 PM)100% (Aug 16, 6:20 AM)30.01 "Hg (Aug 16, 6:20 AM)
Low48 °F (Aug 21, 12:20 AM)38% (Aug 11, 5:20 PM)29.59 "Hg (Aug 10, 10:20 PM)
Average61 °F74%29.82 "Hg
* Reported Aug 8 4:20 PM — Aug 23 4:20 PM, Burgdorf, Weather by CustomWeather, © 2014

Note: Actual official high and low records may vary slightly from our data, if they occured in-between our weather recording intervals... More about our weather records

Advertising

Burgdorf weather history for previous 24 hours

 ConditionsComfort  
Time TempWeatherWind HumidityBarometerVisibility
4:20 PM
Aug 23
63 °FBroken clouds.7 mph52%29.89 "HgN/A
3:20 PM63 °FBroken clouds.5 mph52%29.86 "HgN/A
2:20 PM64 °FScattered clouds.8 mph49%29.86 "HgN/A
1:20 PM63 °FScattered clouds.8 mph56%29.89 "HgN/A
12:20 PM64 °FBroken clouds.14 mph52%29.89 "HgN/A
11:20 AM61 °FPartly sunny.10 mph63%29.89 "HgN/A
10:20 AM59 °FScattered clouds.9 mph72%29.89 "HgN/A
9:20 AM55 °FScattered clouds.8 mph82%29.89 "Hg5 mi
8:20 AM54 °FScattered clouds.8 mph94%29.89 "Hg4 mi
7:20 AM52 °FFog.5 mph94%29.86 "Hg3 mi
6:20 AM52 °FFog.5 mph94%29.86 "Hg2 mi
5:56 AM52 °FFog.5 mph94%29.86 "Hg2 mi
5:20 AM52 °FFog.3 mph94%29.86 "Hg3 mi
4:55 AM52 °FPassing clouds.5 mph94%29.86 "Hg4 mi
4:20 AM52 °FFog.3 mph94%29.86 "Hg3 mi
3:20 AM52 °FPassing clouds.6 mph94%29.86 "Hg4 mi
2:50 AM52 °FPassing clouds.5 mph94%29.86 "Hg5 mi
2:20 AM54 °FPassing clouds.3 mph88%29.86 "HgN/A
1:20 AM54 °FPartly cloudy.2 mph88%29.86 "HgN/A
12:20 AM52 °FPassing clouds.5 mph94%29.86 "HgN/A
11:20 PM
Aug 22
54 °FPassing clouds.3 mph94%29.86 "HgN/A
10:20 PM55 °FLight rain. Passing clouds.9 mph88%29.86 "HgN/A
9:20 PM55 °FLight rain. Partly sunny.8 mph94%29.86 "HgN/A
8:20 PM59 °FLight rain. More clouds than sun.7 mph77%29.83 "HgN/A
7:20 PM59 °FPartly sunny.8 mph77%29.83 "HgN/A
6:20 PM63 °FPartly sunny.9 mph64%29.83 "HgN/A
Weather by CustomWeather, © 2014

See weather overviewHow to use our weather pages